This demonstration page uses our WeatherBlox Daily Observations layout. Learn more.

Left ArrowRight Arrow

34.74481, -87.66753

Hourly Observations for March 27, 2018

Temp ( °F °C ) Dew Point ( °F °C ) Humidity (%) Winds ( mph kmh ) Pressure ( in mb ) Visibility ( mi km ) Precip ( " mm )
12:53 am 00:53 Cloudy 52 11.1 43 6.1 72 72 SE 14 22 30.27 1025 10 16 0.00 0.00
1:53 am 01:53 Cloudy 52 11.1 44 6.7 75 75 SE 18 30 30.26 1025 10 16 0.00 0.00
2:53 am 02:53 Cloudy 52 11.1 44 6.7 75 75 SE 16 26 30.25 1024 10 16 0.00 0.00
3:33 am 03:33 Cloudy 51 10.6 45 7.2 80 80 SE 12 19 30.27 1025 10 16 0.00 0.00
3:53 am 03:53 Cloudy 51 10.6 45 7.2 80 80 SE 9 15 30.25 1024 10 16 0.00 0.00
4:53 am 04:53 Cloudy 51 10.6 45 7.2 80 80 SE 12 19 30.26 1025 10 16 0.00 0.00
5:53 am 05:53 Cloudy 50 10 45 7.2 83 83 SE 13 20 30.27 1025 10 16 0.00 0.00
6:30 am 06:30 Cloudy 50 10 45 7.2 83 83 SE 8 13 30.30 1026 10 16 0.00 0.00
6:53 am 06:53 Cloudy 50 10 45 7.2 83 83 SE 13 20 30.30 1026 10 16 0.00 0.00
7:08 am 07:08 Cloudy 50 10 44 6.7 80 80 SE 15 24 30.30 1026 10 16 0.00 0.00
7:53 am 07:53 Cloudy 50 10 44 6.7 80 80 SE 14 22 30.29 1026 10 16 0.00 0.00
8:53 am 08:53 Cloudy 50 10 45 7.2 83 83 SE 9 15 30.31 1027 10 16 0.00 0.00
9:53 am 09:53 Cloudy 52 11.1 45 7.2 77 77 SSE 13 20 30.30 1026 10 16 0.00 0.00
10:44 am 10:44 Cloudy 54 12.2 46 7.8 75 75 SSE 12 19 30.27 1025 10 16 0.00 0.00
10:53 am 10:53 Mostly Cloudy 55 12.8 47 8.3 74 74 SE 14 22 30.26 1025 10 16 0.00 0.00
11:53 am 11:53 Mostly Sunny 63 17.2 50 10 63 63 SSE 16 26 30.24 1024 10 16 0.00 0.00
12:53 pm 12:53 Sunny 66 18.9 52 11.1 61 61 S 13 20 30.22 1023 10 16 0.00 0.00
1:53 pm 13:53 Partly Cloudy 67 19.4 52 11.1 59 59 SSW 13 20 30.20 1023 10 16 0.00 0.00
2:53 pm 14:53 Mostly Sunny 71 21.7 53 11.7 53 53 S 15 24 30.16 1021 10 16 0.00 0.00
3:53 pm 15:53 Partly Cloudy 71 21.7 53 11.7 53 53 S 17 28 30.14 1021 10 16 0.00 0.00
4:53 pm 16:53 Mostly Cloudy 72 22.2 53 11.7 52 52 S 17 28 30.12 1020 10 16 0.00 0.00
5:53 pm 17:53 Mostly Cloudy 69 20.6 54 12.2 59 59 S 14 22 30.13 1020 10 16 0.00 0.00
6:53 pm 18:53 Mostly Cloudy 65 18.3 53 11.7 66 66 S 10 17 30.14 1021 10 16 0.00 0.00
7:53 pm 19:53 Mostly Cloudy 64 17.8 53 11.7 68 68 S 10 17 30.13 1020 10 16 0.00 0.00
8:05 pm 20:05 Mostly Clear 63 17.2 53 11.7 70 70 S 10 17 30.12 1020 10 16 0.00 0.00
8:22 pm 20:22 Mostly Cloudy 63 17.2 53 11.7 70 70 SSE 8 13 30.12 1020 10 16 0.00 0.00
8:48 pm 20:48 Partly Cloudy 63 17 54 12 73 73 S 6 9 30.12 1020 10 16 0.00 0.00
8:53 pm 20:53 Mostly Clear 63 17.2 54 12.2 73 73 S 8 13 30.13 1020 10 16 0.00 0.00
9:53 pm 21:53 Clear 64 17.8 55 12.8 73 73 S 7 11 30.12 1020 10 16 0.00 0.00
10:53 pm 22:53 Clear 64 17.8 56 13.3 75 75 S 12 19 30.10 1019 10 16 0.00 0.00
11:53 pm 23:53 Partly Cloudy 64 17.8 55 12.8 73 73 S 12 19 30.08 1019 10 16 0.00 0.00

Powered by AerisWeather